Location: Julian California
(33.0790°N, 116.6010°W)
Time: 23:52:47
(UTC-07:00)

Cosmos 1697 Rocket - Pass Details

Date: 27 March 2019
Orbit: 831 x 844 km, 71.0° (Epoch: 21 October)

Event Time Altitude Azimuth Distance (km) Brightness Sun altitude
Rises 03:54:20 0° 354° (N) 3,385 6.1 -34.1°
Reaches altitude 10° 03:57:22 10° 10° (N) 2,445 5.5 -33.6°
Maximum altitude 04:01:37 22° 60° (ENE) 1,751 5.0 -32.8°
Drops below altitude 10° 04:05:51 10° 109° (ESE) 2,431 5.5 -32.0°
Sets 04:08:50 0° 125° (SE) 3,361 6.2 -31.5°
